Time,TemperatureF,DewpointF,PressureIn,WindDirection,WindDirectionDegrees,WindSpeedMPH,WindSpeedGustMPH,Humidity,HourlyPrecipIn,Conditions,Clouds,dailyrainin,SolarRadiationWatts/m^2,SoftwareType,DateUTC
2013-03-25 00:01:00,35.2,26.7,29.73,North,358,6.0,-999.0,71,0.00,,,0.00,0,Wunderground v.1.15,2013-03-25 04:01:00,
2013-03-25 00:31:00,34.1,26.3,29.73,NNW,348,0.0,-999.0,73,0.00,,,0.00,0,Wunderground v.1.15,2013-03-25 04:31:00,
2013-03-25 01:01:00,32.9,26.8,29.73,NNW,348,2.0,-999.0,78,0.00,,,0.00,0,Wunderground v.1.15,2013-03-25 05:01:00,
2013-03-25 02:01:00,32.0,27.1,29.74,NNW,348,2.0,-999.0,82,0.00,,,0.00,0,Wunderground v.1.15,2013-03-25 06:01:00,
2013-03-25 02:31:00,32.5,27.3,29.73,North,349,3.0,-999.0,81,0.00,,,0.00,0,Wunderground v.1.15,2013-03-25 06:31:00,
2013-03-25 03:01:00,31.7,27.1,29.73,North,349,1.0,-999.0,83,0.00,,,0.00,0,Wunderground v.1.15,2013-03-25 07:01:00,
2013-03-25 04:01:00,32.9,28.6,29.73,North,5,4.0,-999.0,84,0.00,,,0.00,0,Wunderground v.1.15,2013-03-25 08:01:00,
2013-03-25 04:31:00,33.5,28.6,29.73,NNE,12,2.0,-999.0,82,0.00,,,0.00,0,Wunderground v.1.15,2013-03-25 08:31:00,
2013-03-25 05:01:00,32.1,28.4,29.73,NNE,12,4.0,-999.0,86,0.00,,,0.00,0,Wunderground v.1.15,2013-03-25 09:01:00,
2013-03-25 05:31:00,33.0,29.3,29.73,NE,35,4.0,-999.0,86,0.00,,,0.00,0,Wunderground v.1.15,2013-03-25 09:31:00,
2013-03-25 07:31:00,34.0,30.5,29.72,NNE,24,6.0,-999.0,87,0.00,,,0.00,146,Wunderground v.1.15,2013-03-25 11:31:00,
2013-03-25 09:01:00,36.7,31.1,29.71,NE,40,10.0,-999.0,80,0.00,,,0.00,232,Wunderground v.1.15,2013-03-25 13:01:00,
2013-03-25 10:01:00,38.4,31.5,29.72,East,100,11.0,-999.0,76,0.00,,,0.00,422,Wunderground v.1.15,2013-03-25 14:01:00,
2013-03-25 10:31:00,39.3,31.4,29.72,East,97,12.0,-999.0,73,0.00,,,0.00,512,Wunderground v.1.15,2013-03-25 14:31:00,
2013-03-25 11:01:00,39.4,32.1,29.72,ESE,109,10.0,-999.0,75,0.00,,,0.00,403,Wunderground v.1.15,2013-03-25 15:01:00,
2013-03-25 11:31:00,39.7,31.4,29.70,East,93,9.0,-999.0,72,0.00,,,0.00,334,Wunderground v.1.15,2013-03-25 15:31:00,
2013-03-25 12:01:00,40.6,31.9,29.69,ESE,123,10.0,-999.0,71,0.00,,,0.00,768,Wunderground v.1.15,2013-03-25 16:01:00,
2013-03-25 13:01:00,42.2,32.0,29.67,ESE,111,8.0,-999.0,67,0.00,,,0.00,677,Wunderground v.1.15,2013-03-25 17:01:00,
2013-03-25 13:31:00,41.7,31.5,29.66,SE,124,10.0,-999.0,67,0.00,,,0.00,410,Wunderground v.1.15,2013-03-25 17:31:00,
2013-03-25 15:31:00,42.4,31.8,29.63,East,101,8.0,-999.0,66,0.00,,,0.00,232,Wunderground v.1.15,2013-03-25 19:31:00,
2013-03-25 16:01:00,42.9,30.8,29.63,ESE,103,8.0,-999.0,62,0.00,,,0.00,322,Wunderground v.1.15,2013-03-25 20:01:00,
2013-03-25 16:31:00,43.2,31.1,29.62,SSE,164,5.0,-999.0,62,0.00,,,0.00,243,Wunderground v.1.15,2013-03-25 20:31:00,
2013-03-25 17:01:00,41.3,30.8,29.59,East,83,6.0,-999.0,66,0.00,,,0.00,265,Wunderground v.1.15,2013-03-25 21:01:00,
2013-03-25 17:31:00,41.3,31.5,29.58,ESE,111,5.0,-999.0,68,0.00,,,0.00,176,Wunderground v.1.15,2013-03-25 21:31:00,
2013-03-25 18:01:00,40.7,30.6,29.58,ESE,111,7.0,-999.0,67,0.00,,,0.00,63,Wunderground v.1.15,2013-03-25 22:01:00,
2013-03-25 19:31:00,39.0,30.0,29.58,East,88,3.0,-999.0,70,0.00,,,0.00,0,Wunderground v.1.15,2013-03-25 23:31:00,
2013-03-25 20:31:00,39.6,29.5,29.59,NE,34,8.0,-999.0,67,0.00,,,0.00,0,Wunderground v.1.15,2013-03-26 00:31:00,
2013-03-25 21:01:00,40.3,28.3,29.59,NE,46,15.0,-999.0,62,0.00,,,0.00,0,Wunderground v.1.15,2013-03-26 01:01:00,
2013-03-25 21:31:00,39.8,29.0,29.59,East,89,13.0,-999.0,65,0.00,,,0.00,0,Wunderground v.1.15,2013-03-26 01:31:00,
2013-03-25 22:02:00,38.8,31.9,29.59,ESE,103,11.0,-999.0,76,0.00,,,0.00,0,Wunderground v.1.15,2013-03-26 02:02:00,
2013-03-25 23:31:00,38.4,28.8,29.57,NE,40,13.0,-999.0,68,0.00,,,0.00,0,Wunderground v.1.15,2013-03-26 03:31:00,